Location: Albany
(35.0000°S, 118.0000°E)
Time: 01:58:10
(UTC-04:00)

Vanguard 3 - Visible Passes

Search period start: 28 May 2016 00:00
Search period end: 07 June 2016 00:00
Orbit: 509 x 3267 km, 33.4° (Epoch: 27 May)

Date Brightness Start Highest point End Pass type
(mag) Time Alt. Az. Time Alt. Az. Time Alt. Az.
28 May 9.4 15:12:11 37° E 15:12:11 37° E 15:16:08 10° E visible
28 May 7.8 17:16:48 32° W 17:21:22 80° N 17:26:59 10° E visible
29 May 10.7 14:02:54 11° E 14:02:54 11° E 14:03:08 10° E visible
29 May 8.2 16:07:31 78° N 16:07:33 78° N 16:14:29 10° E visible
29 May 7.7 18:12:08 12° W 18:20:07 68° NNW 18:25:04 10° ENE visible
30 May 9.6 14:58:13 33° E 14:58:13 33° E 15:01:46 10° E visible
30 May 8.0 17:02:49 40° W 17:06:39 80° N 17:12:42 10° E visible
31 May 8.4 15:53:29 75° ENE 15:53:29 75° ENE 16:00:09 10° E visible
31 May 7.9 17:58:06 16° W 18:05:26 64° NNW 18:10:44 10° ENE visible
01 Jun 11.4 09:54:47 10° N 09:55:37 11° N 09:55:37 11° N visible
01 Jun 9.9 14:44:09 29° E 14:44:09 29° E 14:47:20 10° E visible
01 Jun 8.2 16:48:46 49° W 16:51:51 79° N 16:58:24 10° ENE visible
02 Jun 11.4 08:45:45 10° NNE 08:46:05 10° NNE 08:46:05 10° NNE visible
02 Jun 11.5 10:50:36 10° NNW 10:50:41 10° NNW 10:50:41 10° NNW visible
02 Jun 8.7 15:39:24 66° ENE 15:39:24 66° ENE 15:45:46 10° E visible
02 Jun 8.1 17:44:01 21° W 17:50:39 60° NNW 17:56:22 10° ENE visible
03 Jun 11.2 09:37:19 10° N 09:41:11 16° N 09:41:11 16° N visible
03 Jun 10.1 14:30:03 25° E 14:30:03 25° E 14:32:51 10° E visible
03 Jun 8.3 16:34:39 58° WNW 16:36:57 77° NNW 16:44:03 10° ENE visible
03 Jun 8.7 18:41:08 10° W 18:48:49 33° NW 18:53:39 10° NNE visible
04 Jun 11.2 08:26:41 10° NNE 08:31:45 15° NNE 08:31:45 15° NNE visible
04 Jun 11.3 10:33:50 10° NNW 10:36:21 15° NNW 10:36:21 15° NNW visible
04 Jun 9.0 15:25:18 58° ENE 15:25:18 58° ENE 15:31:22 10° E visible
04 Jun 8.4 17:29:54 26° W 17:35:46 56° NNW 17:41:56 10° NE visible
05 Jun 11.0 09:20:18 10° NNW 09:26:57 22° N 09:26:57 22° N visible
05 Jun 10.3 14:15:56 22° E 14:15:56 22° E 14:18:19 10° E visible
05 Jun 8.5 16:20:32 67° WNW 16:21:58 74° NNW 16:29:39 10° ENE visible
05 Jun 8.9 18:25:40 10° W 18:33:49 30° NW 18:38:59 10° NNE visible
06 Jun 11.0 08:08:52 10° N 08:17:36 19° NE 08:17:36 19° NE visible
06 Jun 11.1 10:17:19 10° NW 10:22:13 21° NNW 10:22:13 21° NNW visible
06 Jun 9.3 15:11:11 50° ENE 15:11:11 50° ENE 15:16:54 10° E visible
06 Jun 8.6 17:15:47 32° W 17:20:45 52° NNW 17:27:27 10° NE visible
